SKYSAT-C6 (42992 NORAD) Tracking and Keplerian Element Data

This shows tracking and keplerian element data for the satellite.

Feedback or suggestion? Click here.




ElementValue
Catalog42992
NameSKYSAT-C6
Epoch Orbit5743
Epoch Day317.77437594
Epoch Year2018
RAAN69.7939
Inclination97.4171
Eccentricity0.0012475
Argument of Perigee24.1121
Mean Anonmoly102.8623
Mean Motion15.21528257
Decay Rate7.74E-06
L11 42992U 17068F 18317.77437594 .00000774 00000-0 37404-4 0 9994
L22 42992 97.4171 69.7939 0012475 24.1121 102.8623 15.21528257 57439

Live tracking and technical data element details for SKYSAT-C6 (NORAD 42992). SKYSAT-C6 can be tracked NOW for your location showing map with azimuth and elevation plus other details from your city location.

Track the satellite on the map from your city or location and see movement details for azimuth, elevation, latitude, longitude, range, height, and movement on the map or in text.







IsCatalogInMostPopularTable: catalog: 42992, numindb: 149
Update: records affected: 1



GetName: 42992 SKYSAT-C6

Hit Count: updated at: Wed, 14 Nov 2018 15:02:55 GMT